#timestamp,LO_Frequency,Hit,StdDev 
1618861555.2,286047031.0,P
1618861575.0,286047031.4,P
1618861576.0,286047031.4,P
1618861595.8,286047031.0,Y
1618861615.6,286046998.3,P
1618861635.5,286046998.6,N
1618861655.3,286047000.5,N
1618861675.1,286047002.0,N
1618861695.9,286047001.3,N
1618861715.7,286047002.5,N
1618861735.5,286047002.6,N
1618861755.4,286047004.3,N
1618861775.2,286047003.9,N
1618861795.1,286047003.5,N
1618861796.0,286047003.5,N
1618861815.8,286047004.5,N
1618861835.6,286047006.1,N
1618861855.5,286047006.9,N
1618861875.3,286047006.5,N
1618861895.2,286047006.5,N
1618861915.9,286047008.5,N
1618861935.7,286047008.8,N
1618861955.6,286047010.8,N
1618861975.4,286047008.1,N
1618861995.2,286047008.2,N
1618862015.1,286047010.6,N
1618862016.0,286047010.6,N
1618862035.8,286047010.7,N
1618862055.6,286047009.6,N
1618862075.5,286047012.4,N
1618862095.3,286047011.9,N
1618862115.2,286047012.2,N
1618862135.9,286047012.8,N
1618862155.7,286047013.6,N
1618862175.6,286047011.9,N
1618862195.4,286047009.6,N
1618862215.3,286047011.9,Y
1618862235.1,286047003.1,P
1618862236.0,286047003.1,N
1618862255.8,286047004.4,N
1618862275.7,286047003.7,N
1618862295.5,286047005.6,Y
1618862315.3,286047001.0,P
1618862335.2,286046998.2,N
1618862355.0,286047000.4,N
1618862355.9,286047000.4,N
1618862375.8,286047000.4,N
1618862395.6,286047000.6,N
